Wind_Speed
19 20 19 19 19 18 17 17 17 16 16 15 14 13 12 11 10 10 10 10 11 11 12 12 13 12 12 10 9 9 8 6 5 5 5 5 4 4 3 3 3 3 4 4 4 4 4 4 4 4 4 3 3 3 3 3 3 4 4 5 5 5 5 5 4 4 4 3 3 4 4 4 5 5 5 5 4 4 3 2 2 2 2 3 3 3
18 19 19 18 19 18 18 16 15 15 14 14 13 12 12 11 10 10 9 10 10 11 12 13 13 13 12 10 8 7 6 6 6 6 6 5 4 4 4 4 4 4 4 4 4 4 4 4 4 3 3 3 3 3 3 4 5 6 6 7 6 6 6 6 5 5 5 5 5 5 5 6 6 6 5 4 4 3 2 2 2 3 3 3 3 3
19 19 20 19 19 18 18 16 15 14 13 13 12 11 11 10 9 9 9 9 10 11 12 12 13 12 11 10 8 7 6 6 6 6 5 4 4 4 4 4 4 4 4 4 3 3 3 3 3 3 3 3 3 3 4 5 6 7 7 8 7 7 7 7 7 7 6 6 6 6 6 6 6 6 5 4 3 3 3 3 3 3 3 4 4 4
21 21 21 20 19 18 18 16 15 13 12 12 11 11 10 10 9 9 10 11 12 12 12 12 12 12 11 10 9 8 7 6 6 5 4 4 4 4 4 4 4 4 4 3 2 2 2 2 2 2 2 2 3 3 4 5 6 7 7 7 7 7 7 7 7 7 7 7 7 7 7 6 6 6 5 5 4 4 4 4 4 4 4 4 4 5
20 20 20 20 18 17 17 16 15 13 13 12 12 12 11 11 11 11 12 13 14 14 13 13 12 11 11 11 10 9 8 7 6 5 5 5 5 4 4 4 5 4 4 3 3 2 2 2 2 2 2 2 3 4 5 5 6 6 7 7 7 7 7 7 7 7 7 7 7 7 7 7 7 7 7 7 6 6 6 5 5 5 5 5 5 5
19 19 19 19 18 17 16 15 15 14 14 13 14 14 13 13 13 13 14 15 15 14 14 13 13 12 11 11 11 10 9 9 8 7 7 6 5 5 5 5 5 5 4 4 3 3 3 3 3 3 3 3 4 4 5 6 6 6 6 6 6 6 6 7 7 7 7 7 7 7 7 7 7 8 8 8 8 8 7 7 6 6 6 5 5 5
18 18 18 18 17 17 16 15 15 14 14 15 15 15 15 15 15 15 15 15 15 15 15 14 13 13 12 12 12 12 11 11 10 10 9 8 7 6 6 6 5 5 5 4 4 4 4 4 4 4 4 5 5 6 6 6 6 7 7 7 7 7 7 7 7 7 7 8 8 7 7 7 7 8 8 8 8 8 8 8 8 7 6 6 6 6
18 18 18 18 17 16 16 16 15 14 14 15 15 16 16 16 16 16 16 16 16 15 14 14 14 13 13 13 13 13 13 12 12 11 10 9 8 7 7 6 6 6 5 5 4 4 4 5 5 5 5 6 6 7 7 7 7 8 8 8 8 8 8 8 8 8 8 8 8 8 8 8 8 8 8 8 8 8 8 8 8 7 7 7 6 6
19 19 19 19 18 18 17 16 15 15 13 13 14 16 17 17 16 16 16 16 15 15 14 13 13 13 13 13 13 12 12 11 11 10 9 9 8 8 8 7 7 6 6 5 5 5 6 6 6 6 7 7 7 8 8 8 9 9 9 9 9 9 9 9 9 9 9 9 9 9 9 10 10 10 10 10 9 9 9 9 8 8 7 7 7 6
20 20 19 19 19 19 18 17 16 15 13 12 12 14 16 17 17 16 15 15 15 14 13 12 12 12 12 12 12 11 11 10 9 9 8 7 7 7 7 7 7 7 6 6 6 6 7 7 7 8 8 9 9 9 9 9 10 10 10 10 10 10 10 9 9 9 9 10 10 10 11 11 11 11 11 11 10 10 9 8 8 7 7 7 6 6
19 20 19 18 18 18 18 18 17 16 13 12 12 13 14 16 17 17 16 16 15 14 13 12 11 11 11 12 11 11 10 10 9 8 8 7 7 7 7 7 7 7 7 7 7 8 8 8 8 9 9 9 9 9 9 10 10 11 11 11 10 10 10 9 10 10 10 11 11 12 12 12 12 11 11 11 10 9 8 7 7 7 6 6 6 6
18 18 17 17 16 16 17 17 17 16 15 15 14 14 15 16 17 18 18 18 17 15 14 13 12 12 12 12 11 11 10 9 8 7 7 7 7 7 7 7 8 8 8 8 8 9 9 9 9 9 10 10 10 10 10 10 11 11 11 10 10 9 9 9 10 10 11 12 12 12 11 11 10 10 9 9 8 7 7 7 6 6 6 6 6 5
17 17 16 16 16 16 16 16 16 16 17 17 16 15 16 17 17 18 18 18 17 16 15 14 13 13 13 13 12 11 10 9 8 7 6 6 7 7 7 8 8 8 9 9 9 9 10 10 10 10 10 11 11 10 10 10 10 10 10 10 9 9 9 10 10 11 12 12 11 10 8 7 7 7 7 6 6 6 6 6 6 6 6 5 5 5
16 16 15 15 15 16 17 17 17 17 18 19 20 19 18 19 18 18 17 17 16 15 15 14 14 14 14 14 13 12 11 10 9 8 7 7 8 8 8 8 8 9 9 9 9 10 9 9 10 10 10 11 11 11 11 11 11 11 10 10 10 10 10 10 11 11 12 11 9 6 5 5 5 4 4 4 5 5 5 5 5 5 5 5 5 4
16 16 14 12 13 15 17 18 19 19 20 21 21 20 18 18 19 18 17 16 16 16 15 14 14 14 14 14 14 13 12 11 11 10 9 9 9 9 9 9 9 9 9 9 9 9 9 9 9 10 10 10 11 11 11 11 11 12 11 11 10 10 10 11 11 11 11 9 6 5 4 4 4 4 3 3 4 4 5 5 5 5 5 5 5 4
18 16 14 13 14 15 17 19 19 19 20 20 21 19 17 18 19 19 17 17 17 17 15 14 12 12 13 15 16 15 14 13 12 11 10 10 10 10 10 10 10 10 10 10 9 9 9 9 10 10 10 11 11 11 11 12 12 12 11 10 10 10 10 10 10 10 9 7 5 5 5 4 4 3 3 3 3 4 4 5 5 5 5 4 4 4
18 17 16 15 15 16 18 19 19 19 19 20 20 19 18 18 18 19 18 18 18 17 16 14 10 7 7 10 14 17 16 15 14 13 11 11 11 11 11 11 11 11 10 10 10 9 10 11 11 11 11 11 12 12 12 13 12 12 10 10 9 9 9 9 10 9 8 6 5 5 5 4 4 3 3 3 3 4 5 5 5 5 5 4 4 4
18 18 17 16 16 18 18 19 19 18 19 20 20 19 18 17 18 18 17 18 18 18 17 16 12 8 5 5 9 14 17 16 15 13 12 12 12 11 11 11 11 11 11 11 11 11 11 12 12 12 12 12 13 13 13 13 12 11 10 9 9 9 9 9 9 9 7 6 6 5 5 5 4 4 4 3 4 4 5 5 5 5 4 5 5 5
19 20 19 18 18 18 19 20 20 20 20 21 20 19 18 17 17 18 18 18 18 18 17 16 14 11 6 4 6 11 14 15 14 13 12 12 12 11 11 11 11 11 12 12 12 12 13 13 13 13 13 13 13 12 12 11 10 10 9 9 9 9 9 9 9 8 7 7 6 6 6 5 5 4 4 4 4 4 4 5 5 5 5 5 5 5
19 19 19 18 17 17 18 20 20 20 20 20 20 20 19 18 18 18 18 18 19 18 17 17 16 13 9 7 7 8 10 12 12 12 12 12 11 11 11 11 12 12 12 13 13 13 13 13 13 13 13 12 12 11 10 9 9 8 8 8 8 8 8 8 8 8 7 7 7 7 6 6 5 5 5 5 5 5 5 5 5 5 5 5 5 6
17 17 16 14 14 16 17 18 18 18 18 18 19 19 19 19 19 19 19 19 19 19 17 16 15 13 10 9 8 8 9 10 11 11 10 10 11 12 12 12 12 12 12 12 11 11 12 12 12 12 12 11 10 10 10 9 9 8 8 8 8 8 8 9 9 9 8 8 8 8 7 7 6 6 6 5 5 5 5 5 5 5 6 6 6 6
12 12 11 10 10 11 12 13 14 15 16 16 17 18 19 19 19 19 19 19 19 19 17 15 13 12 10 10 10 9 9 9 10 9 8 7 9 11 12 11 11 10 10 10 9 9 10 10 11 11 10 10 10 10 10 10 9 9 8 8 8 8 9 10 9 9 8 8 8 8 8 7 7 6 6 6 6 6 6 6 6 6 6 6 6 7
6 7 8 9 9 8 8 10 12 13 14 15 15 15 16 16 17 17 17 18 18 17 16 14 13 12 11 11 11 11 10 9 9 9 7 5 5 7 9 8 8 8 8 7 8 8 9 9 10 10 10 10 11 11 11 10 10 9 8 8 9 10 10 10 10 9 8 8 8 8 8 8 7 6 6 6 6 6 6 6 6 6 6 7 7 7
5 6 7 8 8 8 8 10 11 12 13 13 13 12 11 12 12 12 13 14 15 15 15 14 13 12 11 11 11 11 11 10 10 9 7 5 5 6 6 6 6 6 6 6 7 7 8 8 9 9 10 11 11 11 10 9 9 8 9 9 10 11 10 10 9 8 7 7 7 7 7 7 6 6 6 6 6 6 6 6 6 6 7 7 7 7
6 7 8 8 8 8 9 10 11 12 13 13 13 13 12 11 11 11 12 12 13 14 14 13 11 10 10 10 10 10 11 11 10 9 8 5 5 6 7 6 6 6 6 5 6 6 7 8 8 9 10 10 10 9 8 7 7 8 8 9 10 10 9 8 7 6 6 6 6 7 7 6 6 6 6 6 6 6 6 6 6 6 7 7 7 7
7 7 7 8 8 9 9 10 11 12 13 13 14 13 13 12 12 12 12 12 13 13 13 11 11 10 10 10 10 10 11 11 11 11 10 7 5 5 7 7 6 6 5 5 5 5 6 7 7 8 9 9 8 6 6 6 6 6 6 7 7 7 7 7 6 6 6 6 6 6 7 7 7 7 6 6 6 6 6 7 7 7 7 7 8 8
7 8 8 8 8 9 10 10 11 12 12 13 13 12 12 12 12 12 12 13 13 13 13 11 10 10 11 10 9 10 11 11 11 11 10 9 6 5 6 7 6 5 5 5 5 5 5 6 6 7 7 7 6 6 6 6 5 4 4 4 4 5 6 6 6 6 6 6 7 7 7 7 8 8 8 8 8 8 8 8 8 8 8 8 9 10
6 6 6 6 7 8 9 10 10 11 12 12 11 11 11 10 11 12 13 13 13 13 13 12 11 10 10 9 8 9 10 11 11 11 10 9 6 4 5 6 6 5 5 5 5 5 5 5 6 6 6 6 7 7 6 6 5 4 4 4 4 4 5 5 6 6 6 6 6 7 7 7 7 8 8 9 9 9 9 9 9 9 9 10 11 12
6 6 7 7 8 8 8 8 9 9 9 10 10 10 10 9 9 10 11 11 12 12 13 13 12 10 8 8 8 8 9 11 11 11 11 10 7 5 6 6 5 5 5 5 4 4 4 5 6 6 7 7 7 7 6 4 3 3 4 4 5 5 6 6 6 6 6 6 6 6 6 6 7 7 8 8 9 9 9 10 10 10 11 11 12 13
10 10 10 10 10 10 10 10 9 8 7 8 9 9 9 9 8 8 8 9 10 11 12 13 13 11 8 6 5 6 8 10 12 12 12 11 8 7 7 6 6 5 4 4 3 3 3 4 6 7 8 8 7 6 4 3 2 3 4 5 6 6 7 7 7 7 6 6 6 6 6 6 6 6 7 7 7 8 8 8 8 9 11 11 12 13
11 11 11 11 11 11 11 11 10 9 8 8 8 8 8 8 8 8 8 9 10 10 11 11 12 12 10 6 3 2 4 8 11 12 13 13 10 7 7 6 6 5 4 3 3 2 1 4 6 8 8 8 7 6 4 3 4 5 5 6 6 7 7 8 9 8 8 7 7 6 6 6 6 6 6 6 6 7 7 7 7 8 9 10 11 12
11 11 11 11 11 11 11 11 11 10 10 9 8 8 8 8 8 8 9 9 10 10 10 11 11 12 12 9 7 5 3 4 8 10 11 11 10 8 8 7 6 6 5 4 4 2 1 2 5 7 8 8 7 6 5 5 6 7 7 7 7 7 7 8 9 9 9 8 8 8 7 7 7 7 7 7 7 7 7 7 7 8 9 9 10 10
10 10 10 10 11 11 11 11 11 11 10 9 9 8 8 8 8 8 8 9 10 10 11 11 11 12 13 13 12 9 5 4 5 8 10 9 8 8 8 7 7 6 6 6 5 4 3 3 4 5 7 8 8 8 7 7 7 7 7 7 7 7 8 8 9 9 9 9 9 9 9 8 8 8 8 8 8 8 8 8 8 8 8 9 9 9
11 11 11 11 11 12 12 12 12 11 10 9 9 9 8 8 8 8 7 8 8 9 10 11 12 13 13 13 14 13 10 7 6 7 9 9 8 7 8 8 8 7 7 6 6 5 5 5 5 5 5 7 8 8 8 7 7 7 7 6 6 7 7 8 9 9 9 9 9 9 9 9 9 8 8 8 9 9 9 9 9 8 8 8 9 9
11 11 12 12 12 12 12 12 11 11 10 9 9 9 8 8 8 7 6 6 6 7 8 9 11 12 13 13 14 14 13 10 9 9 10 10 10 9 9 9 9 9 8 7 6 5 4 6 6 5 4 5 7 8 7 6 5 5 6 6 6 7 7 8 9 9 10 10 10 10 9 9 9 8 8 8 8 9 9 9 9 8 8 8 8 9
12 12 12 12 12 12 12 11 11 10 10 9 9 8 8 8 7 7 6 5 5 5 6 7 8 10 12 13 14 14 13 12 11 11 11 11 11 11 10 9 9 10 9 9 8 6 5 5 6 7 7 5 5 5 4 4 4 4 5 5 6 7 7 8 9 10 10 11 11 10 10 10 10 9 9 9 9 9 10 10 10 9 9 9 8 9
12 13 13 13 12 12 12 11 10 10 9 9 9 8 8 8 7 7 6 6 5 5 5 6 7 8 10 12 13 13 12 12 12 12 12 12 12 13 12 11 10 11 10 10 10 9 7 5 5 6 7 7 5 3 3 4 5 6 6 6 7 8 8 9 11 12 12 12 13 12 12 12 11 11 11 10 10 11 11 11 11 11 11 10 10 10
13 13 13 13 13 13 12 12 11 10 10 9 9 8 8 8 8 8 7 7 7 7 7 7 7 7 9 10 11 12 12 13 13 13 13 12 13 14 14 13 13 12 11 10 10 10 10 7 6 5 5 6 7 7 7 8 9 10 11 10 9 9 9 9 11 12 13 14 14 15 14 14 14 13 13 12 12 12 12 12 12 12 12 12 12 12
14 14 14 14 14 13 13 12 11 11 10 9 9 9 9 9 9 9 9 9 9 9 9 9 8 8 9 9 10 11 12 13 14 14 14 14 14 14 15 15 14 14 13 12 11 11 11 10 8 6 4 4 6 8 9 10 11 12 14 14 13 10 9 8 9 10 12 14 15 15 15 15 15 14 14 14 13 13 13 13 12 12 12 12 13 13
15 15 15 15 14 14 13 13 12 11 10 10 9 9 10 10 10 10 10 10 10 10 10 10 10 10 10 10 11 11 12 14 15 15 16 16 16 16 16 16 15 15 14 13 13 12 12 12 12 11 9 7 7 8 10 12 14 15 16 16 15 12 10 10 10 10 11 12 13 14 14 14 14 14 14 13 13 13 13 13 13 13 13 13 13 13
15 16 16 15 15 14 14 13 12 11 11 10 10 10 10 11 11 11 11 11 11 12 12 12 12 12 12 12 12 13 13 14 15 16 17 17 17 17 17 17 16 16 15 14 14 14 14 14 15 15 15 15 14 15 17 17 18 18 17 16 17 17 16 14 11 10 9 10 11 11 12 12 12 12 12 12 13 13 13 13 13 13 13 13 13 13
15 16 15 15 14 14 14 13 13 12 12 12 11 11 11 11 11 11 12 12 12 12 12 13 13 14 14 14 14 14 14 14 15 16 17 18 19 19 19 19 18 18 17 16 16 16 16 16 16 17 17 17 17 17 19 20 20 19 18 18 19 19 17 12 8 5 5 6 7 8 9 10 10 11 12 13 13 14 14 14 14 14 14 14 14 14
15 15 14 13 13 13 13 13 13 13 13 12 12 12 11 11 11 12 12 12 13 13 13 13 14 14 16 16 16 15 15 15 15 16 17 18 18 19 20 20 20 20 19 19 19 19 19 19 19 20 20 19 18 18 19 21 21 20 20 19 18 15 10 9 7 6 6 7 8 8 9 10 11 12 13 14 15 15 15 14 14 14 14 14 13 14
15 15 14 14 14 14 14 14 14 14 13 13 13 12 12 12 12 12 12 13 13 13 13 13 14 15 16 17 17 16 14 14 15 15 16 16 17 18 19 20 21 21 21 21 21 20 21 21 22 22 21 21 20 20 21 21 21 21 20 19 18 16 14 13 13 13 13 12 11 11 11 11 12 13 14 15 15 15 14 14 14 14 13 13 13 13
16 16 16 15 15 15 15 15 15 14 14 14 14 13 13 12 13 13 13 13 13 13 13 13 13 13 14 15 16 15 13 12 13 13 14 14 15 15 16 17 19 20 21 22 23 22 21 20 21 21 21 21 21 21 21 22 22 22 20 19 18 18 19 19 17 16 16 15 13 12 11 12 13 14 14 15 14 14 13 13 13 12 12 12 12 12
18 18 17 17 16 16 16 15 15 15 15 15 15 14 14 13 14 14 14 14 14 14 14 14 13 13 12 13 13 13 12 11 10 10 11 11 12 13 13 14 16 17 19 20 21 22 22 21 20 20 19 19 19 21 21 21 21 21 20 19 19 19 19 19 18 16 16 15 14 12 11 11 12 14 14 14 14 13 13 12 12 11 11 11 11 12
19 19 19 18 18 17 17 16 16 16 16 16 16 15 15 15 15 15 15 15 15 14 14 14 15 15 15 14 13 12 11 10 9 8 8 9 10 10 11 12 13 14 15 16 17 18 19 19 19 18 18 17 17 19 20 20 20 20 20 19 19 19 19 19 18 16 15 14 14 12 11 11 12 13 14 14 14 14 13 12 11 11 11 11 11 11
19 19 19 19 19 18 18 18 18 18 18 18 18 17 16 16 16 16 16 16 16 15 15 15 16 16 17 17 16 15 13 12 11 9 8 8 9 9 10 11 12 12 13 14 14 15 16 17 17 17 18 17 17 17 18 19 20 19 19 19 19 19 20 20 18 16 14 13 12 11 10 10 12 13 13 14 14 14 13 12 11 11 11 11 11 11
19 19 19 19 19 19 19 19 19 19 19 19 19 19 18 18 17 17 17 17 17 16 16 16 16 17 17 17 17 16 15 14 13 11 9 9 8 9 9 10 11 11 12 13 14 14 15 16 17 18 19 19 19 19 19 20 20 20 20 20 20 20 20 20 17 14 12 11 10 9 9 9 10 11 12 14 15 16 15 14 12 11 11 10 10 10
20 19 19 19 20 20 20 20 20 20 20 20 20 20 19 19 19 19 18 18 18 17 17 17 17 18 18 18 17 16 16 15 14 12 10 9 8 8 8 9 10 10 11 11 12 12 13 14 17 19 21 22 22 21 21 21 21 21 20 20 20 20 19 19 16 12 10 9 8 8 8 8 8 9 11 13 15 16 16 16 14 13 11 10 9 9
20 20 19 20 20 20 20 20 21 21 21 21 21 21 20 20 20 20 19 19 19 19 19 18 18 19 19 19 18 18 17 16 15 14 12 10 8 8 8 9 9 9 8 8 8 8 8 9 11 15 19 22 22 22 22 21 20 19 18 20 19 18 18 16 14 10 9 8 8 8 8 8 8 8 10 12 14 15 16 16 15 13 11 10 9 10
Wind_Direction
209 207 205 204 203 202 204 210 211 210 211 212 213 215 218 221 223 224 221 215 209 204 201 198 196 195 195 195 200 205 208 203 190 175 164 161 173 191 198 199 197 192 188 185 184 186 191 199 206 211 215 218 220 219 214 200 181 167 162 162 162 163 163 162 162 165 170 177 185 195 207 220 230 237 242 245 244 239 239 249 262 272 278 283 289 292
202 199 197 199 201 201 201 205 207 207 208 208 210 214 217 218 220 219 214 206 200 197 198 200 202 201 198 195 194 193 184 168 160 158 156 158 169 182 188 190 192 191 188 186 185 189 196 205 216 223 229 231 228 218 203 188 178 174 172 172 173 172 173 173 175 178 184 195 204 212 220 228 233 236 236 231 228 231 239 253 260 263 266 272 279 284
189 189 190 195 199 200 198 199 200 202 205 206 208 211 213 212 211 206 196 189 187 189 194 199 203 204 199 193 185 174 163 163 167 173 176 181 189 193 197 202 205 205 203 201 200 204 212 225 234 239 239 231 220 206 197 190 186 184 185 185 185 186 187 190 193 196 201 209 216 222 226 230 232 231 228 225 226 233 244 253 258 261 264 269 274 280
183 182 186 190 195 198 199 195 192 192 196 198 202 205 207 202 197 190 182 179 181 184 190 196 202 204 202 195 185 176 172 178 186 195 205 216 220 219 217 220 223 224 225 224 225 227 233 241 246 248 244 225 205 196 194 194 193 192 194 196 198 200 202 206 210 214 219 224 228 231 233 235 235 234 232 232 235 241 247 253 259 263 266 271 275 277
183 183 184 185 187 192 195 193 188 185 187 189 191 193 195 193 188 182 178 178 181 183 187 191 196 199 202 200 195 189 186 190 197 206 215 226 229 226 224 226 229 232 233 233 232 233 234 236 240 244 244 224 200 191 191 193 196 199 202 205 209 214 218 223 229 233 237 240 243 245 246 245 245 244 242 242 242 244 248 253 258 262 266 271 274 276
183 184 185 183 182 183 185 185 183 182 183 185 187 187 187 188 185 182 180 181 182 185 187 189 192 196 201 204 204 202 200 201 205 211 216 222 223 220 218 219 223 227 229 230 232 233 234 235 234 234 231 215 200 192 192 197 203 207 212 218 224 230 236 242 246 251 254 257 259 259 258 256 255 253 251 250 249 248 249 251 255 258 263 269 273 276
181 183 183 181 180 179 177 178 181 185 185 185 185 186 187 188 187 186 186 187 188 190 191 193 196 201 205 208 210 211 212 213 216 220 223 224 221 215 212 213 215 218 222 224 224 224 223 223 221 217 211 202 195 192 197 204 212 219 227 234 241 248 253 257 261 265 268 270 271 270 269 267 264 262 260 258 256 254 253 252 253 256 260 266 271 273
174 178 180 178 177 176 175 177 183 191 194 190 187 186 187 189 190 191 193 194 196 198 200 202 205 208 210 212 213 215 219 222 225 228 230 227 220 212 207 207 208 211 214 215 212 206 204 203 202 198 195 192 192 196 204 212 222 232 240 248 254 259 263 266 269 272 274 275 276 276 275 273 272 271 269 268 266 264 261 256 253 253 257 263 267 268
172 173 178 180 177 173 172 178 186 195 202 200 192 187 186 188 191 194 197 200 203 206 207 209 210 211 212 211 211 213 217 221 223 224 225 224 220 214 209 207 206 206 207 206 201 197 196 195 193 192 194 197 202 208 215 225 234 242 250 256 260 264 267 269 271 273 274 274 274 274 274 274 274 273 272 272 271 269 267 262 256 252 253 257 260 262
175 174 175 179 181 179 175 177 185 195 203 203 197 191 188 187 188 190 194 199 203 205 204 205 205 205 205 205 205 206 209 211 211 210 209 210 212 213 212 209 207 204 203 202 202 202 203 202 203 204 207 211 215 221 228 236 243 249 255 259 262 265 268 269 270 271 271 272 272 273 274 274 274 273 271 270 268 267 265 262 256 250 247 250 252 253
173 174 173 175 180 184 183 181 184 190 195 194 191 190 190 189 188 188 189 192 195 197 196 196 197 198 197 197 198 199 199 200 200 200 198 198 203 207 209 209 208 205 203 203 207 211 212 214 215 218 221 224 228 232 237 243 248 252 256 259 263 266 268 269 269 270 271 272 274 276 276 276 274 271 268 265 263 260 258 256 252 246 241 242 244 246
168 171 171 172 176 180 184 186 187 187 186 185 185 188 190 190 191 191 190 190 190 192 194 193 195 197 198 197 196 197 197 198 200 202 204 206 211 214 214 214 212 210 209 211 215 218 220 222 223 224 226 229 232 235 240 244 248 252 255 259 263 266 268 269 269 271 274 276 278 280 279 277 273 268 263 258 254 250 248 246 243 240 237 236 238 241
168 170 170 172 174 177 181 183 184 184 185 186 188 190 191 189 191 194 195 191 190 191 194 197 199 200 202 202 201 200 200 202 206 212 219 225 230 231 230 227 224 222 221 222 225 228 230 231 231 231 232 232 234 235 238 242 245 249 253 257 261 263 265 267 270 273 277 280 282 283 281 278 273 266 257 249 243 240 237 235 234 232 231 231 233 236
165 168 169 171 176 181 184 184 183 184 188 192 193 192 190 187 189 193 195 194 192 192 196 200 203 204 203 205 206 206 206 208 213 220 228 234 238 241 239 236 233 231 230 230 231 234 236 237 238 238 238 239 239 240 241 244 246 250 253 257 259 261 263 266 270 274 278 280 281 279 277 276 272 264 251 241 235 230 227 225 226 226 225 225 228 230
166 167 169 176 182 186 189 191 190 191 194 195 195 193 190 188 189 191 193 194 193 193 196 200 203 204 204 206 208 210 211 213 217 223 229 235 238 240 239 238 236 234 233 233 234 236 238 240 241 243 244 244 245 246 248 250 252 254 257 259 260 261 263 266 271 275 278 276 271 264 262 263 262 257 248 237 229 221 216 216 218 220 220 221 222 224
173 173 175 182 187 191 195 198 198 197 197 196 194 192 190 190 191 192 193 193 192 191 190 189 191 198 205 208 210 213 215 217 220 225 230 233 236 238 238 236 235 235 235 235 236 239 242 245 246 248 249 250 251 252 253 254 256 258 259 259 260 260 263 266 271 274 274 267 256 251 254 255 254 250 242 234 221 212 206 208 210 212 213 216 218 218
179 181 183 186 190 195 199 202 202 200 197 195 193 192 193 193 193 194 195 194 191 188 186 183 180 183 202 213 215 215 218 220 224 228 230 232 234 236 235 234 233 234 237 239 240 243 246 249 251 252 253 254 255 255 256 256 256 257 256 256 256 257 259 263 268 270 266 252 243 244 249 249 247 244 238 228 219 210 205 208 209 209 208 211 214 216
186 189 191 191 193 197 199 199 198 197 196 193 192 192 193 194 194 194 196 195 191 187 187 189 188 186 189 203 217 219 220 221 224 228 228 227 229 232 232 232 232 234 238 243 246 247 249 251 252 253 254 256 257 257 257 256 255 254 252 251 251 252 255 259 262 263 256 241 234 238 243 243 241 238 235 229 222 215 210 212 213 212 211 212 215 217
195 198 199 201 202 201 200 197 195 193 193 192 191 190 191 192 193 193 195 195 193 190 190 192 196 199 202 201 213 217 218 218 220 223 224 220 221 226 230 230 233 238 244 249 251 251 250 251 252 253 254 255 257 257 257 254 252 250 247 246 247 249 252 255 257 257 249 234 229 232 238 238 236 234 232 229 224 221 219 219 219 219 218 218 219 221
205 207 210 211 208 203 199 197 195 193 193 192 191 189 188 189 190 191 192 193 194 194 196 198 201 207 216 221 221 217 215 212 214 217 219 218 219 224 231 235 240 247 252 255 254 252 250 249 250 251 252 254 256 255 253 250 247 245 245 245 247 248 250 252 255 254 246 232 225 227 233 235 234 232 231 229 227 225 223 223 222 220 220 220 222 224
217 217 219 218 213 206 200 197 195 193 194 193 192 190 189 189 189 191 192 193 194 196 199 202 206 212 222 226 223 216 213 207 207 211 218 223 228 233 239 244 250 254 257 256 253 249 247 247 247 248 250 252 253 252 248 245 242 242 242 244 246 247 247 249 252 253 246 233 224 221 225 230 233 233 231 231 230 229 228 227 226 224 223 223 223 225
233 226 217 212 213 213 208 198 193 193 194 196 195 194 193 193 192 193 196 197 198 199 201 205 209 214 218 220 218 217 216 208 207 213 223 235 245 247 248 250 252 254 254 251 248 245 244 245 245 247 249 250 250 249 247 244 241 238 239 241 242 242 244 248 251 252 246 234 224 219 218 221 226 231 232 232 232 232 231 231 231 230 230 230 230 230
237 226 207 202 204 209 210 202 196 194 195 200 203 204 205 204 204 205 207 206 205 205 206 207 210 213 216 217 218 219 221 217 218 223 230 241 244 245 250 250 248 247 250 248 245 244 245 245 245 247 248 249 250 251 250 248 243 239 237 236 237 240 244 249 251 250 243 232 223 217 214 214 219 226 231 232 232 233 233 233 233 234 234 234 234 235
212 211 205 199 196 197 202 203 200 197 196 198 203 208 212 213 215 216 216 214 212 211 211 211 212 213 216 218 219 220 224 227 229 230 232 240 243 241 243 244 243 244 250 251 250 248 248 246 246 247 248 250 252 253 252 248 242 237 235 236 238 241 245 248 248 244 236 226 219 214 210 209 215 223 229 230 231 231 232 232 233 233 233 234 235 236
201 203 203 200 195 195 198 201 202 200 197 196 197 200 202 205 207 208 209 211 212 212 212 212 208 206 211 214 217 222 228 234 236 234 230 235 241 239 237 240 243 247 253 253 252 252 251 250 248 247 248 250 252 251 245 236 231 231 235 238 240 242 242 241 238 232 225 218 212 208 206 207 212 219 223 225 226 227 228 229 229 230 232 233 235 236
198 198 197 194 191 190 194 198 200 200 199 199 200 202 203 204 205 206 207 207 209 209 208 204 201 204 211 215 220 225 230 236 238 236 231 232 236 239 237 239 241 248 256 257 258 258 257 254 249 246 246 245 242 232 217 208 211 222 233 238 238 236 232 228 222 217 212 209 206 205 204 206 209 213 216 219 221 223 225 227 229 231 232 234 236 237
194 194 192 190 187 188 191 194 196 197 199 202 205 208 209 209 208 205 203 206 208 208 204 200 203 211 215 220 224 227 230 233 234 234 232 230 233 237 236 235 238 247 261 271 273 270 263 253 243 238 234 226 211 197 189 187 190 201 219 228 228 223 218 214 209 206 205 205 205 206 208 210 212 216 219 221 224 226 227 229 231 233 236 237 238 238
187 185 181 179 179 183 187 191 194 196 199 202 206 210 214 215 211 207 206 211 213 211 208 207 210 215 217 221 224 228 228 228 227 225 224 222 224 228 225 229 236 251 271 285 286 276 259 241 227 217 207 194 184 180 180 181 183 189 198 205 207 209 208 207 206 205 205 206 208 212 215 218 221 223 226 228 229 231 231 233 234 235 237 240 241 242
156 151 151 154 160 167 173 179 186 192 198 202 205 208 213 217 217 215 217 219 217 213 212 213 215 217 220 223 226 229 230 228 223 217 215 213 217 223 222 226 236 255 276 291 291 275 244 218 205 195 188 182 179 179 180 185 193 203 208 209 206 204 203 203 204 206 208 212 217 221 225 228 230 231 233 234 235 236 236 237 238 239 239 241 243 245
153 152 157 160 163 166 168 170 172 176 186 197 203 207 211 215 217 218 221 223 220 217 216 217 217 215 215 219 228 238 238 228 220 215 213 210 212 220 226 227 235 251 269 283 284 270 232 203 194 189 186 185 185 185 190 204 235 248 245 235 225 215 208 205 204 206 209 216 222 226 229 231 233 235 236 237 239 240 240 241 243 244 245 246 247 249
169 170 172 174 174 175 176 176 174 172 176 191 204 211 215 218 219 219 220 224 225 223 221 220 218 214 209 206 205 232 241 221 214 213 213 210 212 220 226 225 230 242 257 263 270 272 231 194 191 193 194 195 198 202 216 251 277 277 270 258 243 230 219 213 209 207 207 211 216 221 224 227 230 233 235 236 238 240 241 241 244 248 251 251 253 254
185 185 185 185 184 185 186 188 187 187 190 200 213 223 229 232 233 232 230 230 230 228 225 223 221 218 215 212 208 208 222 209 205 206 208 208 211 220 226 224 226 235 250 254 257 253 205 187 192 199 205 211 217 226 245 270 280 279 272 263 250 236 226 219 214 210 207 207 210 214 218 222 226 228 231 233 235 237 238 237 240 246 251 254 256 258
202 201 201 200 199 198 198 200 201 204 207 214 224 234 242 246 247 244 239 235 233 231 227 224 223 222 222 222 223 223 226 218 203 200 202 203 207 215 221 223 225 230 242 249 253 251 239 230 216 213 219 227 235 245 258 270 274 271 265 256 245 233 225 221 216 213 210 209 210 213 216 219 223 226 229 232 234 236 237 236 237 241 249 256 258 260
212 213 213 213 212 211 211 212 213 215 219 224 232 240 246 249 249 244 239 234 232 231 230 228 226 225 226 228 230 231 231 229 218 209 207 205 207 213 219 221 222 226 232 238 242 245 247 244 242 239 240 243 247 255 263 267 264 258 254 246 235 225 221 219 217 216 215 215 215 217 219 222 224 227 230 234 235 237 237 236 235 236 245 255 260 262
218 218 219 219 219 218 218 218 220 222 226 232 237 243 246 245 241 236 230 228 229 231 232 232 232 231 232 233 234 235 233 232 228 224 220 216 216 219 224 225 226 226 225 227 227 230 236 241 244 247 257 264 268 270 269 259 247 241 242 239 233 226 223 223 223 223 224 224 225 226 227 229 231 234 237 240 241 240 239 237 234 234 238 248 257 263
219 220 221 222 222 223 223 224 225 229 234 240 245 247 246 241 235 229 225 227 231 237 239 240 239 238 238 239 239 239 237 236 234 232 229 226 225 225 227 229 231 230 226 224 222 221 224 233 242 249 257 267 278 279 267 241 225 225 232 239 241 240 239 238 237 237 236 237 237 237 238 240 242 244 247 249 249 247 243 239 236 234 233 237 245 256
222 222 223 224 225 227 229 231 235 239 245 251 253 251 248 242 236 233 234 239 246 252 254 253 249 246 244 243 243 241 238 236 236 235 232 230 229 228 227 231 236 236 231 227 225 224 225 228 238 249 255 254 256 257 250 253 252 252 255 258 260 257 254 253 252 250 249 248 248 248 248 249 251 253 255 256 255 253 250 246 242 239 237 235 236 241
224 225 226 227 228 230 234 238 243 248 254 258 257 254 249 244 241 241 245 250 255 260 264 265 263 258 253 249 245 241 236 234 234 234 232 231 229 229 229 231 236 239 238 235 233 231 228 227 232 241 248 247 250 256 264 273 277 278 279 279 276 272 268 263 260 257 256 255 255 255 255 256 257 259 261 261 259 258 255 253 249 247 246 244 242 241
229 230 230 231 232 234 238 242 248 255 259 261 258 252 246 242 241 242 246 250 255 259 263 266 267 266 261 255 250 244 239 235 234 233 232 231 231 230 231 231 234 237 240 238 237 234 232 230 229 231 238 247 254 262 271 276 280 284 289 290 288 284 279 274 268 263 261 259 258 258 258 259 261 262 264 264 262 260 257 254 251 250 250 251 250 249
237 238 238 239 240 242 244 249 254 258 260 258 253 246 241 238 238 239 243 247 253 257 261 265 267 267 265 260 255 249 243 238 235 234 233 232 232 232 233 233 234 236 238 237 236 235 234 234 236 239 242 251 260 266 272 275 279 285 291 294 294 292 289 288 284 275 265 259 257 256 256 257 259 260 260 260 259 256 255 253 251 250 250 252 254 256
245 246 247 246 247 248 250 253 256 258 257 253 248 243 239 237 237 238 240 245 250 255 261 265 267 267 266 263 258 252 247 243 239 237 235 233 233 233 234 235 235 236 236 236 237 237 237 238 241 245 249 255 263 269 272 275 279 284 288 289 290 292 294 294 289 278 263 253 249 249 250 251 253 254 255 254 253 253 253 252 252 252 252 254 256 259
252 253 254 253 251 250 251 253 254 254 253 250 248 244 241 240 241 241 243 246 249 255 260 264 266 267 265 261 257 253 250 247 243 241 238 236 235 234 234 235 236 237 237 238 239 239 240 243 245 248 252 257 262 268 272 276 280 282 283 284 288 293 296 294 286 268 251 243 242 244 247 251 253 255 255 254 253 251 252 253 254 255 255 257 259 261
259 261 261 260 257 254 253 252 251 251 250 249 248 247 245 245 245 246 248 249 253 258 263 267 269 269 267 264 259 253 249 247 245 243 242 239 238 236 236 236 237 238 239 241 242 244 245 247 249 252 256 259 262 265 269 274 277 280 280 282 285 287 289 284 277 268 261 258 257 258 260 263 264 264 260 257 254 253 253 254 255 256 257 258 260 262
265 266 266 263 260 256 252 250 250 249 250 250 250 250 249 248 248 248 250 252 256 261 265 267 269 269 267 265 262 257 249 244 243 243 242 241 240 239 239 239 239 239 241 243 244 245 248 250 252 255 259 261 262 262 265 269 272 275 277 278 278 274 270 273 277 278 276 272 270 269 271 273 272 268 263 261 258 257 256 255 255 255 257 259 261 264
266 266 264 261 258 255 252 250 249 250 250 251 252 252 251 250 249 250 251 254 258 261 264 265 265 263 262 263 263 261 254 244 238 238 240 241 241 241 241 241 241 242 243 245 246 247 248 250 254 258 262 263 263 262 262 264 268 271 273 275 275 274 274 276 279 279 278 278 277 276 277 278 276 273 270 266 262 260 258 256 254 254 255 258 262 266
264 263 262 260 257 255 253 252 252 251 252 252 253 252 252 251 251 251 253 255 258 261 263 263 259 254 253 257 260 260 256 248 237 230 230 234 237 240 241 242 243 244 245 247 249 251 252 253 255 258 261 261 261 261 261 262 264 267 270 272 273 275 276 278 279 279 280 281 281 282 282 280 277 275 275 272 267 262 257 255 254 255 257 261 265 269
264 263 262 261 259 257 255 254 253 252 253 253 253 253 252 251 251 251 254 256 259 260 261 260 256 252 251 252 254 256 255 252 243 230 222 223 228 233 235 238 240 242 244 246 248 250 252 254 255 256 255 254 255 257 259 261 262 264 267 270 272 274 275 276 276 278 280 282 284 285 284 281 279 278 278 276 272 267 261 257 257 260 264 268 271 274
266 265 263 262 261 259 257 255 254 253 252 253 254 254 253 252 251 250 252 256 258 259 258 256 254 252 252 253 253 255 256 257 255 247 233 226 225 227 229 230 232 235 237 240 242 245 246 247 248 248 248 248 249 252 256 258 260 262 265 269 271 272 272 275 277 278 280 281 283 284 284 283 283 283 284 283 280 275 269 265 265 267 271 275 277 278
267 265 264 263 261 260 258 257 255 254 253 254 254 254 254 253 252 251 252 255 257 257 256 254 253 253 254 254 254 255 257 260 261 258 251 241 232 227 227 227 228 230 232 235 238 241 244 246 246 245 244 246 247 249 254 258 260 262 265 267 268 269 270 273 276 278 280 282 282 282 280 279 277 279 282 284 284 282 278 276 275 276 278 279 280 281
266 264 263 262 261 260 259 258 257 255 255 255 255 254 255 254 253 253 254 256 256 256 255 254 253 254 254 255 256 256 257 259 261 261 259 252 243 236 233 230 230 231 233 237 240 245 250 254 254 251 249 248 248 249 252 256 260 263 264 265 265 266 268 271 274 277 281 284 284 282 278 274 271 271 274 278 281 283 284 284 284 283 283 284 284 284
264 263 261 260 260 260 260 259 258 257 256 256 256 256 256 255 254 253 254 254 254 253 254 254 254 254 254 255 257 258 258 259 260 261 259 256 251 246 243 239 236 235 235 234 240 250 260 265 266 263 259 254 251 250 250 252 255 257 259 261 263 265 267 270 274 278 281 285 286 284 280 274 268 265 266 272 277 281 284 285 286 285 284 285 285 284
Height
814 814 815 816 817 818 818 818 818 818 819 819 820 821 822 822 823 823 824 825 826 826 827 827 827 828 828 828 828 828 829 829 830 830 830 830 830 830 831 831 831 831 832 832 832 833 833 833 833 834 834 834 835 835 835 836 836 837 837 837 838 838 838 839 839 839 839 839 839 839 839 839 839 838 838 839 839 839 839 840 840 840 840 841 841 841
813 814 815 815 816 816 817 817 818 818 818 819 819 820 821 821 822 823 823 824 825 826 826 827 827 827 827 828 828 828 829 829 830 830 830 830 830 830 830 831 831 831 831 832 832 832 833 833 833 833 834 834 834 835 835 835 836 836 837 837 837 838 838 838 838 838 838 838 838 838 838 838 838 838 838 838 838 839 839 839 840 840 840 840 840 840
812 813 814 814 815 815 816 816 817 817 818 818 818 819 820 820 821 822 823 823 824 825 825 826 827 827 827 827 828 828 829 829 829 829 830 830 830 830 830 830 831 831 831 831 832 832 832 832 833 833 833 833 834 834 834 835 835 835 836 836 836 837 837 837 837 837 837 837 837 837 837 837 837 837 837 838 838 838 839 839 839 839 839 839 840 840
811 812 812 813 814 814 815 815 816 817 818 818 818 819 819 820 820 821 822 823 823 824 825 825 826 826 827 827 828 828 829 829 829 829 829 829 830 830 830 830 830 831 831 831 831 831 832 832 832 833 833 833 833 834 834 834 835 835 835 835 835 836 836 836 836 836 836 836 836 836 836 836 836 836 837 837 837 838 838 838 838 838 839 839 839 839
810 810 811 812 813 813 814 815 815 816 817 818 818 818 819 819 820 821 822 822 823 823 824 825 825 826 826 827 827 828 828 829 829 829 829 829 829 829 830 830 830 830 830 831 831 831 831 832 832 832 833 833 833 833 834 834 834 834 834 835 835 835 835 835 835 835 835 835 835 835 835 835 836 836 836 836 837 837 837 838 838 838 838 838 838 839
809 810 811 811 812 813 813 814 815 816 817 817 818 818 818 819 820 820 821 822 823 823 823 824 825 825 826 826 827 827 828 828 828 828 829 829 829 829 829 829 830 830 830 830 830 831 831 831 832 832 832 833 833 833 833 833 833 834 834 834 834 834 834 834 835 835 835 835 835 835 835 835 835 835 835 836 836 836 836 837 837 837 837 838 838 838
808 809 810 811 811 812 813 813 814 815 816 816 817 818 818 819 819 820 821 821 822 823 823 824 824 825 825 826 826 827 827 827 827 828 828 828 828 829 829 829 829 829 830 830 830 830 831 831 831 832 832 833 833 833 833 833 833 833 833 833 833 834 834 834 834 834 834 834 834 834 834 834 834 834 835 835 835 835 836 836 836 836 837 837 837 838
807 808 809 810 811 812 813 813 814 814 815 815 816 817 817 818 819 819 820 821 822 822 823 823 824 824 824 825 825 826 826 826 827 827 827 828 828 828 828 829 829 829 829 829 830 830 830 831 831 832 832 832 832 833 833 833 833 833 833 833 833 833 833 833 833 833 833 833 833 833 833 833 834 834 834 834 834 834 835 835 835 836 836 836 837 837
805 807 808 809 810 811 812 813 813 814 814 814 815 815 816 817 818 819 819 820 821 822 822 823 823 823 824 824 825 825 826 826 826 827 827 827 827 828 828 828 828 828 829 829 829 829 830 830 831 831 831 831 832 832 832 832 832 832 832 832 833 833 833 833 833 833 833 833 833 833 833 833 833 833 833 833 833 833 834 834 834 835 835 836 836 836
803 805 806 808 808 809 810 811 812 813 813 814 814 814 815 816 817 818 819 819 820 821 821 822 822 823 823 824 824 825 825 825 826 826 827 827 827 827 827 828 828 828 828 828 829 829 829 829 830 830 830 831 831 831 831 831 831 831 832 832 832 832 832 832 832 832 832 832 832 832 832 832 832 832 832 832 832 833 833 833 833 834 834 835 835 835
803 804 805 807 808 809 809 810 811 812 813 813 813 814 814 815 816 817 818 818 819 820 820 821 822 822 823 823 823 824 824 825 825 826 826 826 827 827 827 827 827 828 828 828 828 828 828 829 829 829 830 830 830 830 830 831 831 831 831 831 831 831 831 831 831 831 831 831 831 831 831 831 831 831 831 831 831 832 832 832 833 833 833 834 834 835
803 804 805 806 807 808 809 810 810 811 812 813 813 814 814 815 815 816 816 817 818 819 820 820 821 822 822 823 823 823 824 824 825 825 825 826 826 826 826 826 827 827 827 827 828 828 828 828 828 829 829 829 829 829 830 830 830 830 830 830 830 830 830 830 830 830 830 830 830 830 830 830 830 830 830 830 830 831 831 831 832 832 833 833 833 834
802 803 804 805 806 807 808 809 809 810 811 811 811 812 812 813 814 815 816 816 817 818 819 820 820 821 822 822 823 823 823 824 824 824 825 825 825 825 825 826 826 826 826 827 827 827 827 827 828 828 828 828 828 828 829 829 829 829 829 829 829 829 829 829 829 829 829 829 829 829 829 829 828 829 829 829 829 830 830 831 831 831 832 832 833 833
802 803 804 805 806 806 807 807 808 808 808 809 809 810 811 812 813 814 815 816 817 818 818 819 820 820 821 822 822 823 823 823 824 824 824 824 824 825 825 825 825 825 826 826 826 826 827 827 827 827 827 827 828 828 828 828 828 828 828 828 828 828 828 828 828 828 828 828 828 828 828 828 828 828 828 828 829 829 829 830 830 831 831 832 832 832
801 802 803 804 805 805 805 805 805 806 806 807 808 809 810 811 812 813 814 815 817 817 818 819 819 820 821 821 822 822 822 823 823 823 823 824 824 824 824 824 824 825 825 825 825 826 826 826 826 826 826 827 827 827 827 827 827 827 828 828 828 828 828 828 827 827 827 827 827 827 827 827 827 827 828 828 828 828 829 829 830 830 831 831 831 832
800 801 802 803 803 803 804 804 804 805 805 807 808 809 810 811 812 813 813 814 815 817 818 818 819 820 821 821 821 821 822 822 822 823 823 823 823 823 823 823 824 824 824 824 825 825 825 825 825 825 826 826 826 826 826 826 826 827 827 827 827 827 827 826 826 826 826 826 826 826 827 827 827 827 827 827 828 828 828 829 829 830 830 830 831 831
799 800 800 801 802 802 803 803 804 804 805 806 807 808 809 810 811 812 813 813 815 816 817 818 818 819 820 820 820 821 821 821 822 822 822 823 823 823 823 823 823 823 823 823 824 824 824 824 824 825 825 825 825 825 825 825 825 825 826 826 826 826 826 826 825 825 825 825 826 826 826 826 826 826 826 827 827 828 828 828 828 829 829 830 830 831
799 799 800 800 801 801 802 802 803 804 805 806 807 808 808 809 810 811 812 813 814 815 815 816 817 818 818 819 819 819 820 820 821 821 821 822 822 822 822 822 822 822 823 823 823 823 823 823 823 823 824 824 824 824 824 824 824 824 825 825 825 825 825 825 824 824 824 825 825 825 825 825 825 826 826 826 827 827 827 828 828 828 829 829 830 830
798 798 799 799 799 800 801 801 802 803 803 804 805 807 808 809 810 811 812 812 813 814 814 815 816 817 817 817 817 818 818 819 820 820 820 821 821 821 821 821 822 822 822 822 822 822 823 823 823 823 823 823 823 823 823 823 823 823 823 824 824 824 824 824 824 824 824 824 824 824 824 825 825 825 825 825 826 826 827 827 827 828 828 829 829 830
798 798 798 798 799 799 800 800 801 802 803 803 805 806 807 808 809 810 811 812 812 813 814 814 815 816 816 816 817 817 818 818 819 819 819 820 820 820 820 820 821 821 821 821 821 821 821 821 821 822 822 822 822 822 822 822 822 823 823 823 823 823 823 823 823 823 823 823 823 824 824 824 824 824 825 825 825 826 826 826 827 827 828 828 829 829
798 798 798 798 799 799 799 800 801 802 803 804 805 806 806 807 808 809 810 811 812 812 813 814 814 815 816 816 816 817 817 818 818 818 819 819 819 819 819 819 820 820 820 820 820 820 820 820 820 820 821 821 821 821 821 821 821 822 822 822 822 822 822 822 822 822 822 822 823 823 823 823 824 824 824 824 825 825 825 826 826 827 827 828 828 828
798 798 798 799 799 799 799 800 801 802 803 804 804 805 806 807 808 808 809 810 811 812 813 813 814 815 815 815 816 816 816 817 818 818 818 818 818 818 818 818 818 818 819 819 819 819 819 819 819 819 820 820 820 820 820 820 820 820 821 821 821 821 821 821 821 821 821 821 822 822 822 823 823 823 824 824 824 825 825 825 826 826 827 827 827 828
798 798 798 799 799 800 800 801 802 802 803 804 804 805 805 806 807 808 808 809 810 811 812 813 813 814 814 815 815 815 816 816 817 817 818 818 818 817 817 818 818 818 818 818 818 818 818 818 818 818 818 818 818 819 819 819 819 819 820 820 820 820 820 820 820 820 820 820 821 821 822 822 823 823 823 823 824 824 824 825 825 826 826 826 827 827
798 798 798 799 799 800 800 801 801 802 803 803 804 805 806 807 808 808 809 810 810 811 812 812 813 813 814 814 814 815 815 815 816 816 817 817 817 817 817 817 817 817 817 817 817 817 817 817 818 818 818 818 818 818 818 818 818 818 819 819 819 819 819 819 819 819 819 820 820 820 821 821 822 822 823 823 823 823 824 824 825 825 826 826 826 827
798 798 798 799 799 800 800 801 801 802 803 803 804 805 806 806 807 808 808 809 810 810 811 812 812 813 813 813 813 814 814 814 815 815 816 816 816 816 816 816 816 816 816 817 817 817 816 816 817 816 816 816 817 817 817 817 818 818 818 818 818 818 818 818 818 818 819 819 819 820 820 821 821 822 822 822 823 823 823 824 824 824 825 825 825 826
798 798 798 799 799 800 800 801 801 802 802 803 803 804 805 806 806 807 808 808 809 810 810 811 811 812 812 813 813 813 813 813 814 814 815 815 815 815 815 815 816 816 816 816 816 816 816 816 815 815 815 815 816 816 816 817 817 817 817 817 817 817 817 818 818 818 818 818 819 819 819 820 820 821 821 821 822 822 823 823 823 824 824 824 825 825
798 798 798 799 799 800 800 801 801 802 802 803 803 804 804 805 806 806 807 808 808 809 809 810 810 811 811 812 812 812 812 813 813 813 814 814 814 814 814 815 815 815 815 815 815 815 815 815 814 814 814 815 815 815 816 816 816 816 816 816 816 816 817 817 817 817 818 818 818 818 819 819 819 820 820 821 821 821 822 822 823 823 823 823 824 824
798 798 799 799 799 800 800 800 801 801 802 803 803 803 804 804 805 806 806 807 807 808 808 809 809 810 810 811 811 811 811 811 812 812 813 813 814 814 814 814 814 814 814 814 814 814 814 814 814 814 814 814 815 815 815 815 815 816 816 816 816 816 816 816 816 817 817 817 818 818 818 818 819 819 819 820 820 820 821 821 822 822 822 823 823 823
798 799 799 799 799 800 800 800 801 801 802 802 803 803 803 804 804 805 805 806 807 807 808 808 808 809 809 810 810 810 810 810 811 811 812 813 813 813 813 813 813 814 814 814 813 813 813 813 813 813 814 814 814 815 815 815 815 815 815 815 815 815 815 816 816 816 817 817 817 818 818 818 818 818 818 819 819 819 820 820 820 821 821 821 821 821
798 798 799 799 799 799 800 800 801 801 802 802 802 803 803 803 804 805 805 805 806 806 807 807 808 808 809 809 809 809 809 809 810 810 811 811 812 812 812 813 813 813 813 813 813 813 813 813 813 813 813 814 814 814 814 814 814 814 814 814 814 814 815 815 815 816 816 816 817 817 817 817 818 818 818 818 818 818 819 819 819 820 820 820 820 820
798 798 798 798 799 799 799 800 800 801 801 801 802 802 803 803 803 804 804 805 805 805 806 806 807 807 808 808 809 809 808 808 808 809 810 810 811 811 812 812 812 813 813 813 813 813 813 813 813 813 813 813 813 814 814 814 814 814 814 814 814 814 814 814 814 815 815 815 816 816 816 816 817 817 817 817 818 818 818 818 818 819 818 819 819 819
798 798 798 799 799 799 799 800 800 800 801 801 801 802 802 803 803 803 803 804 804 804 805 805 806 806 807 807 807 807 807 807 808 808 809 810 810 811 811 811 811 812 812 812 812 812 813 812 812 813 813 813 813 813 813 813 813 813 813 813 813 813 813 813 813 814 814 814 815 815 815 815 816 816 816 816 816 817 817 817 818 818 818 818 818 818
798 798 798 798 799 799 799 800 800 800 800 800 801 801 801 802 802 802 803 803 803 803 804 804 805 805 806 806 806 806 807 807 808 808 808 809 809 810 810 810 811 811 811 811 812 812 812 812 812 812 812 812 812 812 813 813 813 812 812 812 812 813 813 813 813 813 813 813 814 814 814 814 814 815 815 815 815 816 816 816 816 817 817 817 817 817
798 798 798 798 798 799 799 799 799 800 800 800 800 801 801 801 801 802 802 802 802 803 803 803 804 804 805 805 805 806 806 807 807 807 808 808 808 808 809 809 809 810 810 811 811 811 811 811 811 811 811 811 811 812 812 812 812 811 811 811 812 812 812 812 812 812 813 813 813 813 813 813 813 813 814 814 814 814 815 815 815 816 816 816 816 816
797 797 798 798 798 798 798 798 799 799 799 800 800 800 800 800 800 801 801 801 801 802 802 802 803 803 804 804 804 805 805 806 806 806 807 807 807 808 808 808 808 809 809 809 810 810 810 810 810 810 810 810 810 810 810 811 811 811 811 811 811 811 811 811 811 812 812 812 812 812 812 812 813 813 813 813 813 813 813 814 814 814 815 815 815 815
797 797 797 797 797 798 798 798 798 798 799 799 799 799 799 800 800 800 800 801 801 801 801 802 802 802 803 803 803 804 805 805 805 805 806 806 806 807 807 807 807 808 808 808 809 809 809 809 809 809 809 809 809 809 809 809 810 810 810 810 810 810 811 811 811 811 811 811 811 811 811 811 812 812 812 812 812 812 813 813 813 813 813 814 814 814
796 796 796 796 797 797 797 797 798 798 798 798 798 798 799 799 799 799 800 800 800 800 801 801 801 802 802 802 802 803 803 804 804 804 805 805 805 806 806 806 806 807 807 807 808 808 808 808 808 808 809 809 808 808 808 809 809 809 809 810 810 810 810 810 810 810 810 810 810 810 810 810 810 811 811 811 811 811 811 811 812 812 812 812 812 813
795 795 795 796 796 796 796 797 797 797 797 798 798 798 798 798 798 798 799 799 799 800 800 800 800 801 801 801 801 802 802 803 803 803 803 804 804 804 805 805 805 805 806 806 807 807 807 807 808 808 808 807 807 807 808 808 808 808 808 808 808 808 808 808 808 808 808 808 808 808 809 809 809 809 809 810 810 810 810 810 810 810 811 811 811 811
794 794 795 795 795 795 795 796 796 796 797 797 797 797 797 797 798 798 798 798 798 799 799 799 800 800 800 800 800 801 801 801 802 802 802 803 803 803 803 804 804 804 805 805 805 806 806 806 806 806 806 806 806 806 806 806 807 806 806 806 807 807 807 807 807 807 807 807 807 807 807 808 808 808 808 808 808 808 808 809 809 809 809 809 809 809
793 794 794 794 794 795 795 795 795 796 796 796 796 796 796 796 797 797 797 797 798 798 798 798 799 799 799 799 799 799 800 800 800 801 801 801 802 802 802 803 803 803 804 804 804 804 805 805 805 805 805 805 805 805 805 805 805 805 805 805 805 805 805 806 806 806 805 805 805 806 806 806 806 806 807 807 807 807 807 807 807 807 807 807 807 808
793 793 793 793 794 794 794 795 795 795 795 795 795 795 795 795 796 796 796 797 797 797 797 798 798 798 798 798 798 798 798 798 799 799 799 800 800 801 801 802 802 802 803 803 803 803 803 803 804 804 804 804 804 804 803 803 804 804 804 804 803 803 803 804 804 804 804 804 804 804 804 805 805 805 805 805 805 805 805 805 805 806 806 806 806 806
792 792 793 793 793 794 794 794 794 794 794 794 794 794 794 794 795 795 795 796 796 796 797 797 797 797 797 797 797 797 797 797 798 798 798 798 799 799 800 800 801 801 802 802 802 802 802 802 803 803 803 803 803 803 802 802 802 803 803 803 803 802 802 802 802 803 803 803 803 803 803 803 803 804 803 803 803 803 804 804 804 804 804 804 804 804
792 792 792 792 793 793 793 793 793 793 793 793 793 793 793 794 794 794 795 795 795 795 796 796 796 796 795 795 795 795 796 796 796 796 797 797 797 798 798 798 799 800 800 800 800 800 801 801 801 801 801 802 802 802 801 800 801 801 801 802 802 802 802 801 801 802 802 802 802 802 803 803 802 802 802 802 802 802 802 803 803 803 803 803 803 803
791 791 791 792 792 792 792 792 792 792 792 792 792 792 793 793 793 793 794 794 794 795 795 795 795 795 794 794 793 794 794 795 795 795 795 795 796 796 797 797 798 798 798 799 799 799 799 799 799 799 800 801 801 800 800 799 799 799 800 800 801 801 800 800 800 800 801 801 801 801 801 801 801 800 800 800 800 800 801 801 801 801 801 801 801 801
790 790 790 790 790 790 790 790 791 791 791 791 791 791 792 792 792 793 793 793 793 794 794 794 794 794 793 793 792 793 793 793 793 794 794 794 795 795 795 796 796 797 797 797 797 798 798 798 798 798 799 799 799 799 798 798 798 798 798 798 799 799 798 798 798 799 799 799 799 799 800 799 799 798 798 798 798 799 799 799 800 800 800 800 800 800
789 789 789 789 789 789 789 789 789 790 790 790 790 790 791 791 791 792 792 792 793 793 793 793 793 793 792 792 792 792 792 792 793 793 793 793 793 794 794 794 795 795 795 795 796 796 797 797 797 797 798 798 797 797 796 797 797 796 796 797 797 797 797 797 797 797 797 797 798 798 798 798 798 797 797 797 797 797 798 798 798 798 798 798 798 798
788 788 788 788 788 788 788 788 788 788 788 788 789 789 790 790 790 791 791 791 791 792 792 792 792 791 791 791 791 791 791 791 792 792 792 793 793 793 793 793 793 794 794 794 795 795 795 795 796 796 796 796 796 795 794 795 795 795 795 795 796 796 795 795 795 796 796 796 796 796 796 796 796 795 795 795 795 795 795 796 796 797 797 797 797 797
786 786 786 786 787 787 787 787 787 787 787 787 788 788 788 789 789 790 790 790 790 790 790 790 790 790 790 790 790 790 790 790 790 791 791 792 792 792 792 792 792 793 793 793 793 793 794 794 794 794 794 794 794 793 793 793 793 793 794 794 794 794 793 793 793 794 794 794 795 795 795 795 794 794 793 793 793 793 793 794 795 795 795 795 795 795
785 785 785 785 785 785 785 785 785 785 786 786 786 787 787 788 788 788 788 789 789 789 789 789 789 789 788 788 788 789 789 789 789 789 790 790 790 791 791 791 791 791 792 792 792 792 792 792 792 792 792 792 792 792 791 791 792 792 793 793 793 792 792 792 792 793 793 793 793 793 793 793 793 793 793 792 791 791 791 792 793 793 793 794 794 794
784 784 784 784 783 783 783 783 784 784 784 784 785 785 786 786 787 787 787 788 788 788 788 788 788 788 787 787 787 788 788 788 788 788 788 789 789 789 790 790 790 790 790 791 791 791 791 791 791 790 790 790 790 790 790 790 790 791 791 791 791 791 791 790 790 791 792 792 792 792 792 792 792 792 792 791 790 790 790 790 791 791 792 792 793 793
782 782 782 782 782 782 782 782 782 782 782 783 783 783 784 784 785 785 786 786 786 786 786 786 786 786 786 786 786 786 786 787 787 787 787 788 788 788 788 789 789 789 789 790 790 791 791 790 790 788 788 788 788 788 788 788 789 789 789 789 789 789 789 789 789 790 790 790 790 791 791 791 791 791 791 790 790 789 788 788 789 790 790 791 791 791